Location: Paddlesworth
(51.1000°N, 1.1333°E)
Time: 22:36:48
(UTC+00:00)

USA 215 - Pass Details

Date: 11 May 2021
Orbit: 1100 x 1107 km, 123.0° (Epoch: 22 June)

Event Time Altitude Azimuth Distance (km) Brightness Sun altitude
Rises 21:28:48 0° 86° (E) 3,918 5.9 -14.0°
Reaches altitude 10° 21:31:19 10° 82° (E) 2,961 5.3 -14.2°
Maximum altitude 21:37:39 55° 7° (N) 1,304 3.9 -14.8°
Drops below altitude 10° 21:44:00 10° 292° (WNW) 2,965 6.3 -15.3°
Sets 21:46:32 0° 288° (WNW) 3,925 7.0 -15.5°
